📊 Raw Sensor Data
Showing records 36501 to 36525 of 84,897 total
| ID | Distance (ft) | Battery V | Battery A | Int Temp (°F) | Int Humid (%) | Ext Temp (°F) | Solar V | RSSI | SNR | Time Stamp |
|---|---|---|---|---|---|---|---|---|---|---|
| 48409 | 15.3 | 3.96 | 8 | 62 | 42 | 73 | 4.50 | -69 | 8 | 08/06/2025 07:15 AM |
| 48408 | 15.3 | 3.85 | 0 | 60 | 42 | 63 | 4.50 | -69 | 8 | 08/06/2025 07:00 AM |
| 48407 | 15.2 | 3.84 | 0 | 57 | 43 | 63 | 4.50 | -69 | 8 | 08/06/2025 06:45 AM |
| 48406 | 15.1 | 3.91 | -7 | 56 | 44 | 60 | 4.50 | -69 | 7 | 08/06/2025 06:30 AM |
| 48405 | 15.1 | 3.83 | -10 | 55 | 44 | 58 | 4.00 | -69 | 8 | 08/06/2025 06:15 AM |
| 48404 | 15.1 | 3.83 | -5 | 54 | 44 | 57 | 0.80 | -68 | 8 | 08/06/2025 06:00 AM |
| 48403 | 15.1 | 3.92 | -5 | 54 | 44 | 56 | 0.00 | -69 | 8 | 08/06/2025 05:45 AM |
| 48402 | 15.1 | 3.83 | -5 | 54 | 44 | 56 | 0.10 | -68 | 8 | 08/06/2025 05:30 AM |
| 48401 | 15.1 | 3.84 | -5 | 54 | 44 | 57 | 0.10 | -69 | 7 | 08/06/2025 05:15 AM |
| 48400 | 15.1 | 3.93 | -5 | 55 | 44 | 55 | 0.00 | -69 | 8 | 08/06/2025 05:00 AM |
| 48399 | 15.1 | 3.86 | -5 | 55 | 44 | 56 | 0.00 | -70 | 8 | 08/06/2025 04:45 AM |
| 48398 | 15.1 | 3.87 | -5 | 55 | 44 | 57 | 0.00 | -69 | 8 | 08/06/2025 04:30 AM |
| 48397 | 15.1 | 3.87 | -5 | 56 | 44 | 57 | 0.00 | -69 | 8 | 08/06/2025 04:15 AM |
| 48396 | 15.1 | 3.93 | -5 | 56 | 44 | 57 | 0.00 | -70 | 8 | 08/06/2025 04:00 AM |
| 48395 | 15.1 | 3.87 | -5 | 57 | 44 | 59 | 0.00 | -69 | 7 | 08/06/2025 03:30 AM |
| 48394 | 15.1 | 3.87 | -5 | 57 | 44 | 60 | 0.00 | -69 | 8 | 08/06/2025 03:15 AM |
| 48393 | 15.1 | 3.93 | -5 | 57 | 44 | 59 | 0.00 | -69 | 8 | 08/06/2025 03:00 AM |
| 48392 | 15.1 | 3.85 | -5 | 57 | 45 | 59 | 0.00 | -70 | 8 | 08/06/2025 02:45 AM |
| 48391 | 15.1 | 3.84 | -5 | 57 | 45 | 59 | 0.10 | -69 | 8 | 08/06/2025 02:30 AM |
| 48390 | 15.1 | 3.84 | -5 | 57 | 45 | 59 | 0.00 | -69 | 8 | 08/06/2025 02:15 AM |
| 48389 | 15.1 | 3.93 | -5 | 58 | 45 | 61 | 0.00 | -69 | 8 | 08/06/2025 01:45 AM |
| 48388 | 15.1 | 3.85 | -5 | 59 | 45 | 61 | 0.10 | -69 | 8 | 08/06/2025 01:30 AM |
| 48387 | 15.1 | 3.85 | -5 | 59 | 45 | 60 | 0.00 | -70 | 8 | 08/06/2025 01:15 AM |
| 48386 | 15.1 | 3.85 | -5 | 59 | 45 | 62 | 0.00 | -68 | 8 | 08/06/2025 01:00 AM |
| 48385 | 15.1 | 3.85 | -5 | 60 | 45 | 61 | 0.00 | -69 | 8 | 08/06/2025 12:45 AM |